Weather History for Grand Island, NE

Change the Weather History Date:

Thursday, November 8, 2012

  Actual Average Record
Temperature  
Mean Temperature 51 °F 42 °F  
Max Temperature 64 °F 54 °F 88 °F (1915)
Min Temperature 37 °F 30 °F 6 °F (1936)
Degree Days  
Heating Degree Days 14 23  
Month to date heating degree days 151 169  
Since 1 July heating degree days 672 692  
Cooling Degree Days 0 0  
Month to date cooling degree days 0 0  
Year to date cooling degree days 1507 1034  
Moisture  
Dew Point 30 °F    
Average Humidity 53    
Maximum Humidity 76    
Minimum Humidity 30    
Precipitation  
Precipitation 0.00 in 0.04 in 0.89 in (1977)
Month to date precipitation T 0.35  
Year to date precipitation 9.36 25.21  
Snow  
Snow 0.00 in 0.10 in 0.50 in (1977)
Month to date snowfall 0.0 0.6  
Since 1 July snowfall T 1.7  
Since 1 September snowfall T 1.7  
Snow Depth 0.00 in    
Sea Level Pressure  
Sea Level Pressure 29.89 in    
Wind  
Wind Speed 8 mph (SW)    
Max Wind Speed 17 mph    
Max Gust Speed 21 mph    
Visibility 10 miles    
Events      
T = Trace of Precipitation, MM = Missing Value Source: NWS Daily Summary

Daily Weather History Graph

Daily Weather History Graph

Search for Another Location

Airport:

Trip Planner

Search our weather history database for the weather conditions in past years. The results will help you decide how hot, cold, wet, or windy it might be!

Date:

Astronomy

Nov. 08, 2012 Rise Set
Actual Time 7:12 AM CST 5:20 PM CST
Civil Twilight 6:43 AM CST 5:49 PM CST
Nautical Twilight 6:11 AM CST 6:22 PM CST
Astronomical Twilight 5:38 AM CST 6:54 PM CST
Moon 1:07 AM CST (11/8) 2:04 PM CST (11/8)
Length of Visible Light 11h 05m
Length of Day
10h 07m
Waning Crescent, 32% of the Moon is Illuminated
Nov 8
Waning Crescent
Nov 13
New
Nov 20
First Quarter
Nov 28
Full
Dec 6
Last Quarter

Hourly Weather History & Observations

Time (CST) Temp. Windchill Dew Point Humidity Pressure Visibility Wind Dir Wind Speed Gust Speed Precip Events Conditions
12:53 AM 41.0 °F 33.5 °F 28.9 °F 62% 29.94 in 10.0 mi South 13.8 mph - N/A   Clear
1:53 AM 42.1 °F 34.5 °F 28.9 °F 60% 29.91 in 10.0 mi South 15.0 mph - N/A   Clear
2:53 AM 41.0 °F 36.4 °F 28.9 °F 62% 29.91 in 10.0 mi South 6.9 mph - N/A   Clear
3:53 AM 41.0 °F 34.7 °F 28.9 °F 62% 29.90 in 10.0 mi South 10.4 mph - N/A   Clear
4:53 AM 37.0 °F 31.0 °F 28.0 °F 70% 29.90 in 10.0 mi South 8.1 mph - N/A   Clear
5:53 AM 39.9 °F 35.8 °F 28.9 °F 65% 29.91 in 10.0 mi South 5.8 mph - N/A   Clear
6:53 AM 39.9 °F 33.4 °F 28.9 °F 65% 29.89 in 10.0 mi South 10.4 mph - N/A   Clear
7:53 AM 42.1 °F 35.7 °F 30.0 °F 62% 29.91 in 10.0 mi South 11.5 mph - N/A   Clear
8:53 AM 48.9 °F - 30.0 °F 48% 29.93 in 10.0 mi SW 11.5 mph - N/A   Clear
9:53 AM 53.1 °F - 30.9 °F 43% 29.92 in 10.0 mi SW 13.8 mph - N/A   Clear
10:53 AM 57.0 °F - 30.9 °F 37% 29.90 in 10.0 mi WSW 11.5 mph - N/A   Clear
11:53 AM 57.9 °F - 30.9 °F 36% 29.88 in 10.0 mi West 8.1 mph - N/A   Clear
12:53 PM 61.0 °F - 30.9 °F 32% 29.86 in 10.0 mi SW 3.5 mph - N/A   Clear
1:53 PM 63.0 °F - 30.0 °F 29% 29.84 in 10.0 mi Calm Calm - N/A   Clear
2:53 PM 62.1 °F - 30.9 °F 31% 29.85 in 10.0 mi Calm Calm - N/A   Clear
3:53 PM 63.0 °F - 30.9 °F 30% 29.86 in 10.0 mi NNE 5.8 mph - N/A   Clear
4:53 PM 59.0 °F - 30.9 °F 35% 29.87 in 10.0 mi ENE 6.9 mph - N/A   Clear
5:53 PM 50.0 °F - 30.0 °F 46% 29.90 in 10.0 mi NE 4.6 mph - N/A   Clear
6:53 PM 45.0 °F 41.8 °F 30.0 °F 56% 29.92 in 10.0 mi North 5.8 mph - N/A   Clear
7:53 PM 42.1 °F 37.1 °F 30.9 °F 65% 29.92 in 10.0 mi North 8.1 mph - N/A   Clear
8:53 PM 39.0 °F 33.4 °F 30.9 °F 73% 29.90 in 10.0 mi North 8.1 mph - N/A   Clear
9:53 PM 39.9 °F 35.1 °F 30.9 °F 70% 29.90 in 10.0 mi North 6.9 mph - N/A   Clear
10:53 PM 37.9 °F 32.7 °F 30.0 °F 73% 29.89 in 10.0 mi North 6.9 mph - N/A   Clear
11:53 PM 37.9 °F 32.7 °F 30.9 °F 76% 29.87 in 10.0 mi North 6.9 mph - N/A   Clear